COSMOS 1275 DEB, 42143

Orbit data source: Space-Track

COSMOS 1275 DEB, 42143 is space debris in LEO originally from a launch on Thu, 04 Jun 1981 UTC launched from the Plesetsk Missile And Space Complex (PKMTR). Debris objects in space refer to the collection of defunct objects orbiting the Earth. Examples of debris include non-operational satellites, rocket bodies, and fragments generated from explosions, collisions, or faulty payload assembly.

Loading next visibility...
Identifier
42143, 1981-053RF
Orbit
LEO
Country
Flag of CISCIS
Related business
Manufacturer
Unknown
Mission
Spacecraft
Bus & Motor
Unknown
Mass
Unknown
Launch date (UTC)
1981-06-04 (45 years ago)
Launch vehicle
Unknown
Launch site
Plesetsk Missile And Space Complex (PKMTR)
Object type
Payload
Rocket body
Debris
Shape & HBR
Unknown shape, 0.1 m
Radar Cross Section
Small (<0.1 m²)

Expand to show TLE details & history
Last TLE update: 3 days ago

TLE from 3 days ago
0 COSMOS 1275 DEB
1 42143U 81053RF  25348.22890033  .00001560  00000-0  14213-2 0  9995
2 42143  83.0161 326.0254 0095138 177.7012 182.4606 13.80689075605362
Epoch: 2025-12-14T05:29Z
TLE epoch observation values (Epoch: 2025-12-14T05:29:36.988Z)
Latitude
0.00006°
Longitude
160.47647°
Altitude
1,034.131 km
Speed
7.3 km/s
True Right ascension
21h 44m 06s
True Declination
0° 00' 00"
Sunlit
Object was in daylight at epoch
Visualization orbit readout
Latitude
Unknown
Longitude
Unknown
Altitude
Unknown
Speed
Unknown
Apparent Right ascension
Unknown
Apparent Declination
Unknown
Sunlit
N/A
Visualization observer readout
Local Sidereal Time
21:14:55
Azimuth
Unknown
Elevation
Unknown
Doppler factor
Unknown
Orbital elements
Apogee altitude
1,028.382 km
Perigee altitude
888.781 km
Semi-major axis
7,336.718 km
Eccentricity
0.00951
Inclination
83.0161°
RAAN
326.0254°
Arg. of periapsis
177.7012°
True anomaly
182.41434°
Mean anomaly
182.4606°
Eccentric anomaly
182.43742°
Mean motion
3.45375 °/min
Orbital period
104.23 mins
BSTAR
0.0014213
Loading maneuver chart data...
Computing Atmospheric mass density...
Loading historical data...
Loading historical data...
Loading historical data...
Loading historical data...
Loading historical data...
Loading historical data...
Loading historical data...

Documentation

Showing up to 5 results
|